Regional Weather Roundup
Issued by NWS Kansas City/Pleasant Hill, MO

Home | Current Version | Previous Version | Graphics & Text | Print | Product List | Glossary Off
Versions: 1 2 3 4 5 6 7 8 9 10 11 12 13 14 15 16 17 18 19 20 21 22 23 24 25 26 27 28 29 30 31 32 33 34 35 36 37 38 39 40 41 42 43 44 45 46 47 48 49 50

989
ASUS43 KEAX 170610
RWREAX

WEATHER ROUNDUP FOR EASTERN KANSAS AND NORTHWEST MISSOURI
NATIONAL WEATHER SERVICE KANSAS CITY/PLEASANT HILL MO
1200 AM CST TUE JAN 17 2017

KSZ040-057-103>105-MOZ028-029-037-043-170700-
...KANSAS CITY METROPOLITAN AREA...

CITY           SKY/WX    TMP DP  RH WIND       PRES   REMARKS
K.C. INTL      DRZL/FOG  35  33  92 NW14      29.94S VSB 1   WCI  26
6HR MIN TEMP:  35; 6HR MAX TEMP:  43; 6HR PCP:  0.01;

K.C. DOWNTOWN  CLOUDY    37  35  92 W10       29.95R WCI  30
6HR MIN TEMP:  37; 6HR MAX TEMP:  45; 6HR PCP:  0.01;

LEES SUMMIT    CLOUDY    38  50 100 W7        29.94R WCI  33
6HR MIN TEMP:  38; 6HR MAX TEMP:  44; 6HR PCP: TRACE;

OLATHE - IXD   CLOUDY    35  34  96 W12       29.96R WCI  27
6HR MIN TEMP:  35; 6HR MAX TEMP:  42; 6HR PCP: TRACE;

OLATHE - OJC   CLOUDY    35  35 100 W12       29.95R WCI  27
6HR MIN TEMP:  35; 6HR MAX TEMP:  42; 6HR PCP: TRACE;

LAWRENCE       CLOUDY    35  35 100 W12       29.98R WCI  27

$$

MOZ001>008-011>017-020>025-030>033-038>040-044>046-053-054-170700-
...NORTHERN AND CENTRAL MISSOURI...

CITY           SKY/WX    TMP DP  RH WIND       PRES   REMARKS
ST. JOSEPH     CLOUDY    34  34 100 NW10      29.96R WCI  26
6HR MIN TEMP:  34; 6HR MAX TEMP:  42; 6HR PCP:  0.01;

MOSBY          CLOUDY    37  36  93 NW9       29.93R WCI  31
WARRENSBURG    CLOUDY    39  36  87 SW13      29.95S WCI  32
WHITEMAN AFB   DRIZZLE   40  40 100 SW9       29.93R WCI  34
6HR MIN TEMP:  40; 6HR MAX TEMP:  52; 6HR PCP:  0.02;

CLINTON        CLOUDY    41  37  87 SW9       29.97R
SEDALIA        CLOUDY    42  38  85 W10G20    29.96R
6HR MIN TEMP:  42; 6HR MAX TEMP:  56; 6HR PCP:  0.04;

WARSAW         NOT AVBL
CHILLICOTHE      N/A     41  40  96 SW6       29.91S
6HR MIN TEMP:  41; 6HR MAX TEMP:  46; 6HR PCP:  0.10;

KIRKSVILLE     CLOUDY    43  42  97 SW9       29.87R
6HR MIN TEMP:  39; 6HR MAX TEMP:  44; 6HR PCP:  0.28;


$$

MOZ041-047>049-056>058-063>065-088>090-097-170700-
...EASTERN AND SOUTHERN MISSOURI...

CITY           SKY/WX    TMP DP  RH WIND       PRES   REMARKS
ST. LOUIS INTL LGT RAIN  55  51  86 W15G21    29.86R
6HR MIN TEMP:  54; 6HR MAX TEMP:  59; 6HR PCP:  0.02;

SPIRIT OF STL  CLOUDY    51  47  86 W15G24    29.87R
COLUMBIA       CLOUDY    43  38  82 W16G24    29.93R
JEFFERSON CITY CLOUDY    44  37  76 W13       29.95R
ROLLA          LGT RAIN  45  40  82 SW25      29.92R
OSAGE BEACH    CLOUDY    42  36  79 W12       29.98R
SPRINGFIELD    CLOUDY    42  34  73 W16G24    29.98R WCI  34
BRANSON        PTCLDY    41  37  87 W6        30.00F
JOPLIN         CLOUDY    41  37  86 MISG      30.02R
WEST PLAINS    CLEAR     46  42  86 W12       29.97R

$$

IAZ060-094-KSZ022-034>040-054-083-096-NEZ052-066-093-170700-
...KANSAS...SOUTHEAST NEBRASKA AND IOWA...

CITY           SKY/WX    TMP DP  RH WIND       PRES   REMARKS
TOPEKA         CLOUDY    36  32  85 W8        29.98R WCI  30
6HR MIN TEMP:  36; 6HR MAX TEMP:  42; 6HR PCP:  0.01;

MANHATTAN      CLOUDY    34  33  96 W6        30.02R WCI  29
EMPORIA        CLOUDY    34  33  96 W8        30.00R FOG     WCI  27
CHANUTE        CLOUDY    38  34  85 W9        30.02R WCI  31
WICHITA        DRIZZLE   35  34  96 NW10      30.05R WCI  27
OMAHA          CLOUDY    34  30  85 NW16      29.97R FOG     WCI  24
LINCOLN        CLOUDY    33  30  88 NW13      30.00R WCI  24
FALLS CITY     CLOUDY    34  33  96 NW9       29.95R WCI  27
LAMONI         CLOUDY    33  33 100 NW10      29.87S WCI  25
DES MOINES     FOG       34  33  96 NW10      29.88S VSB 1/4 WCI  26

$$





USA.gov is the U.S. government's official web portal to all federal, state and local government web resources and services.